When you browse on this site, cookies collect data to enhance your experience and personalize the content and advertising you see.
Visit our Privacy Policy to learn more. By continuing to use the site, you agree to this use of cookies and data.
  • en Suisse
  • Liste des pays
  • À 7 jours
  • Température de l'eau
  • Carte météo
  • Widgets météo
  • user-avatar
    Se connecter

    Météo par heure à Nurtingen

    Ce jour, 3 Juin, Mercredi

    Heure Température Précipitation Vent Pression Humidité
    00:00 +15°C° 0 mm 1 m/s 734 mmHg 77%
    01:00 +15°C° 0 mm 1 m/s 734 mmHg 78%
    02:00 +15°C° 0 mm 1 m/s 734 mmHg 78%
    03:00 +14°C° 0 mm 1 m/s 733 mmHg 78%
    04:00 +14°C° 0 mm 1 m/s 732 mmHg 78%
    05:00 +16°C° 0 mm 1 m/s 732 mmHg 75%
    06:00 +18°C° 0 mm 1 m/s 732 mmHg 73%
    07:00 +19°C° 0 mm 1 m/s 732 mmHg 71%
    08:00 +21°C° 0 mm 1 m/s 732 mmHg 64%
    09:00 +22°C° 0 mm 1 m/s 731 mmHg 58%
    10:00 +24°C° 0 mm 1 m/s 731 mmHg 52%
    11:00 +25°C° 0.1 mm 1 m/s 730 mmHg 49%
    12:00 +26°C° 0.1 mm 1 m/s 730 mmHg 46%
    13:00 +26°C° 0.1 mm 1 m/s 729 mmHg 44%
    14:00 +26°C° 0 mm 1 m/s 729 mmHg 45%
    15:00 +26°C° 0 mm 1 m/s 728 mmHg 47%
    16:00 +26°C° 0 mm 1 m/s 728 mmHg 48%
    17:00 +25°C° 0.1 mm 1 m/s 727 mmHg 55%
    18:00 +24°C° 0.1 mm 1 m/s 727 mmHg 61%
    19:00 +23°C° 0.1 mm 1 m/s 726 mmHg 68%
    20:00 +21°C° 0.4 mm 1 m/s 726 mmHg 73%
    21:00 +20°C° 0.4 mm 1 m/s 726 mmHg 77%
    22:00 +18°C° 0.4 mm 1 m/s 726 mmHg 82%
    23:00 +17°C° 0.7 mm 2 m/s 726 mmHg 84%

    Demain, 4 Juin, Jeudi

    Heure Température Précipitation Vent Pression Humidité
    00:00 +17°C° 0.7 mm 3 m/s 726 mmHg 87%
    01:00 +15°C° 0.7 mm 4 m/s 726 mmHg 90%
    02:00 +16°C° 1.1 mm 3 m/s 725 mmHg 91%
    03:00 +16°C° 1.1 mm 3 m/s 725 mmHg 92%
    04:00 +16°C° 1.1 mm 3 m/s 725 mmHg 93%
    05:00 +16°C° 0 mm 3 m/s 724 mmHg 92%
    06:00 +16°C° 0 mm 3 m/s 724 mmHg 91%
    07:00 +17°C° 0 mm 2 m/s 724 mmHg 90%
    08:00 +18°C° 0.3 mm 3 m/s 724 mmHg 85%
    09:00 +19°C° 0.3 mm 3 m/s 723 mmHg 79%
    10:00 +20°C° 0.3 mm 3 m/s 723 mmHg 74%
    11:00 +20°C° 0.8 mm 3 m/s 723 mmHg 76%
    12:00 +20°C° 0.8 mm 3 m/s 723 mmHg 78%
    13:00 +19°C° 0.8 mm 3 m/s 723 mmHg 81%
    14:00 +19°C° 0.9 mm 4 m/s 723 mmHg 83%
    15:00 +18°C° 0.9 mm 4 m/s 722 mmHg 85%
    16:00 +17°C° 0.9 mm 4 m/s 722 mmHg 87%
    17:00 +17°C° 1 mm 4 m/s 723 mmHg 88%
    18:00 +16°C° 1 mm 3 m/s 723 mmHg 90%
    19:00 +14°C° 1 mm 3 m/s 723 mmHg 91%
    20:00 +14°C° 0.5 mm 3 m/s 723 mmHg 91%
    21:00 +13°C° 0.5 mm 3 m/s 724 mmHg 92%
    22:00 +13°C° 0.5 mm 3 m/s 724 mmHg 92%
    23:00 +14°C° 0.2 mm 2 m/s 724 mmHg 92%

    Après-demain, 5 Juin, Vendredi

    Heure Température Précipitation Vent Pression Humidité
    00:00 +13°C° 0.2 mm 2 m/s 724 mmHg 93%
    01:00 +13°C° 0.2 mm 2 m/s 725 mmHg 93%
    02:00 +12°C° 0 mm 2 m/s 725 mmHg 93%
    03:00 +12°C° 0 mm 2 m/s 725 mmHg 93%
    04:00 +12°C° 0 mm 2 m/s 725 mmHg 93%
    05:00 +12°C° 0.1 mm 2 m/s 726 mmHg 91%
    06:00 +12°C° 0.1 mm 2 m/s 726 mmHg 89%
    07:00 +11°C° 0.1 mm 3 m/s 726 mmHg 87%
    08:00 +12°C° 0.1 mm 3 m/s 726 mmHg 82%
    09:00 +13°C° 0.1 mm 3 m/s 727 mmHg 77%
    10:00 +14°C° 0.1 mm 4 m/s 727 mmHg 72%
    11:00 +14°C° 0.3 mm 4 m/s 727 mmHg 71%
    12:00 +15°C° 0.3 mm 5 m/s 726 mmHg 71%
    13:00 +15°C° 0.3 mm 5 m/s 726 mmHg 71%
    14:00 +16°C° 0.3 mm 6 m/s 726 mmHg 69%
    15:00 +16°C° 0.3 mm 7 m/s 726 mmHg 68%
    16:00 +16°C° 0.3 mm 8 m/s 726 mmHg 66%
    17:00 +15°C° 0.2 mm 7 m/s 727 mmHg 71%
    18:00 +14°C° 0.2 mm 7 m/s 727 mmHg 76%
    19:00 +13°C° 0.2 mm 6 m/s 727 mmHg 82%
    20:00 +13°C° 0.6 mm 6 m/s 727 mmHg 83%
    21:00 +11°C° 0.6 mm 6 m/s 728 mmHg 84%
    22:00 +11°C° 0.6 mm 6 m/s 728 mmHg 85%
    23:00 +11°C° 0.5 mm 6 m/s 728 mmHg 87%

    6 Juin, Samedi

    Heure Température Précipitation Vent Pression Humidité
    00:00 +11°C° 0.5 mm 6 m/s 728 mmHg 90%
    01:00 +12°C° 0.5 mm 5 m/s 728 mmHg 92%
    02:00 +12°C° 0.7 mm 5 m/s 728 mmHg 93%
    03:00 +12°C° 0.7 mm 4 m/s 728 mmHg 93%
    04:00 +12°C° 0.7 mm 4 m/s 729 mmHg 94%
    05:00 +12°C° 0.4 mm 4 m/s 729 mmHg 93%
    06:00 +13°C° 0.4 mm 4 m/s 729 mmHg 93%
    07:00 +13°C° 0.4 mm 5 m/s 729 mmHg 92%
    08:00 +13°C° 0.1 mm 5 m/s 729 mmHg 90%
    09:00 +14°C° 0.1 mm 5 m/s 729 mmHg 87%
    10:00 +15°C° 0.1 mm 6 m/s 729 mmHg 85%
    11:00 +15°C° 0.1 mm 6 m/s 729 mmHg 81%
    12:00 +16°C° 0.1 mm 6 m/s 729 mmHg 78%
    13:00 +16°C° 0.1 mm 6 m/s 729 mmHg 75%
    14:00 +17°C° 0.1 mm 6 m/s 729 mmHg 74%
    15:00 +17°C° 0.1 mm 6 m/s 729 mmHg 73%
    16:00 +17°C° 0.1 mm 6 m/s 729 mmHg 72%
    17:00 +18°C° 0 mm 4 m/s 730 mmHg 76%
    18:00 +17°C° 0 mm 3 m/s 730 mmHg 79%
    19:00 +16°C° 0 mm 2 m/s 730 mmHg 83%
    20:00 +16°C° 0.1 mm 2 m/s 730 mmHg 85%
    21:00 +15°C° 0.1 mm 2 m/s 731 mmHg 88%
    22:00 +14°C° 0.1 mm 2 m/s 731 mmHg 90%
    23:00 +14°C° 0 mm 2 m/s 731 mmHg 90%

    7 Juin, Dimanche

    Heure Température Précipitation Vent Pression Humidité
    00:00 +14°C° 0 mm 2 m/s 730 mmHg 90%
    01:00 +14°C° 0 mm 2 m/s 730 mmHg 90%
    02:00 +14°C° 0.6 mm 1 m/s 730 mmHg 92%
    03:00 +14°C° 0.6 mm 1 m/s 730 mmHg 94%
    04:00 +14°C° 0.6 mm 1 m/s 730 mmHg 95%
    05:00 +14°C° 0.4 mm 1 m/s 730 mmHg 95%
    06:00 +14°C° 0.4 mm 1 m/s 730 mmHg 95%
    07:00 +15°C° 0.4 mm 1 m/s 730 mmHg 95%
    08:00 +15°C° 0.5 mm 2 m/s 730 mmHg 94%
    09:00 +15°C° 0.5 mm 2 m/s 730 mmHg 93%
    10:00 +14°C° 0.5 mm 3 m/s 730 mmHg 92%
    11:00 +13°C° 2.5 mm 3 m/s 730 mmHg 93%
    12:00 +12°C° 2.5 mm 4 m/s 731 mmHg 94%
    13:00 +10°C° 2.5 mm 4 m/s 732 mmHg 94%
    14:00 +11°C° 0.6 mm 4 m/s 732 mmHg 92%
    15:00 +11°C° 0.6 mm 3 m/s 733 mmHg 90%
    16:00 +12°C° 0.6 mm 2 m/s 733 mmHg 88%
    17:00 +12°C° 0.1 mm 2 m/s 734 mmHg 87%
    18:00 +12°C° 0.1 mm 2 m/s 734 mmHg 86%
    19:00 +13°C° 0.1 mm 1 m/s 734 mmHg 85%
    20:00 +10°C° 0 mm 2 m/s 735 mmHg 86%
    21:00 +9°C° 0 mm 2 m/s 735 mmHg 88%
    22:00 +8°C° 0 mm 2 m/s 735 mmHg 89%
    23:00 +8°C° 0 mm 2 m/s 735 mmHg 90%

    8 Juin, Lundi

    Heure Température Précipitation Vent Pression Humidité
    00:00 +8°C° 0 mm 2 m/s 735 mmHg 91%
    01:00 +7°C° 0 mm 2 m/s 735 mmHg 92%
    02:00 +7°C° 0 mm 2 m/s 735 mmHg 91%
    03:00 +8°C° 0 mm 1 m/s 735 mmHg 90%
    04:00 +8°C° 0 mm 1 m/s 735 mmHg 89%
    05:00 +9°C° 0 mm 1 m/s 735 mmHg 86%
    06:00 +11°C° 0 mm 1 m/s 735 mmHg 83%
    07:00 +12°C° 0 mm 1 m/s 735 mmHg 80%
    08:00 +14°C° 0 mm 1 m/s 735 mmHg 71%
    09:00 +16°C° 0 mm 1 m/s 735 mmHg 62%
    10:00 +19°C° 0 mm 1 m/s 735 mmHg 54%
    11:00 +19°C° 0.1 mm 1 m/s 735 mmHg 54%
    12:00 +19°C° 0.1 mm 1 m/s 735 mmHg 55%
    13:00 +19°C° 0.1 mm 1 m/s 735 mmHg 55%
    14:00 +19°C° 0.1 mm 2 m/s 735 mmHg 57%
    15:00 +19°C° 0.1 mm 2 m/s 735 mmHg 58%
    16:00 +19°C° 0.1 mm 2 m/s 735 mmHg 59%
    17:00 +18°C° 0.3 mm 2 m/s 735 mmHg 67%
    18:00 +17°C° 0.3 mm 3 m/s 735 mmHg 74%
    19:00 +16°C° 0.3 mm 3 m/s 735 mmHg 81%
    20:00 +14°C° 0 mm 2 m/s 736 mmHg 83%
    21:00 +13°C° 0 mm 2 m/s 736 mmHg 85%
    22:00 +12°C° 0 mm 2 m/s 737 mmHg 86%
    23:00 +10°C° 0 mm 2 m/s 737 mmHg 87%
    Voir plus